Location: Praha
(50.0830°N, 14.4670°E)
Time: 01:39:13
(UTC+01:00)

ISS - Pass Details

Date: 15 November 2025
Orbit: 414 x 420 km, 51.6° (Epoch: 18 November)

Event Time Altitude Azimuth Distance (km) Brightness Sun altitude
Rises 18:11:25 0° 228° (SW) 2,344 1.0 -18.1°
Reaches altitude 10° 18:13:35 10° 220° (SW) 1,484 -0.3 -18.4°
Enters shadow 18:16:33 38° 158° (SSE) 649 -3.0 -18.9°
